Tracking 35274 objects as of 12-Sep-2026
HD Live streaming from Space Station
objects crossing your sky now

STARLINK-30563

Track STARLINK-30563 now!
10-day predictions
STARLINK-30563 is classified as:


NORAD ID: 58042
Int'l Code: 2023-156Q
Launch date: October 9, 2023
Source: United States (US)
Launch site: AIR FORCE WESTERN TEST RANGE (AFWTR)
Your satellite tracking list
Your tracking list is empty




NASA's NSSDC Master Catalog

Two Line Element Set (TLE):
1 58042U 23156Q   26254.80963673  .00001936  00000-0  68431-4 0  9992
2 58042  53.1590 290.0278 0001138  96.9214 263.1918 15.34387693164860
Source of the keplerian elements: AFSPC